Regional Weather Roundup
Issued by NWS Charleston, SC

Current Version | Previous Version | Graphics & Text | Print | Product List | Glossary On
Versions: 1 2 3 4 5 6 7 8 9 10 11 12 13 14 15 16 17 18 19 20 21 22 23 24 25 26 27 28 29 30 31 32 33 34 35 36 37 38 39 40 41 42 43 44 45 46 47 48 49 50
000
ASUS42 KCHS 261425
RWRCHS

REGIONAL WEATHER ROUNDUP
NATIONAL WEATHER SERVICE CHARLESTON SC
900 AM EST FRI DEC 26 2014

NOTE: "FAIR" INDICATES FEW OR NO CLOUDS BELOW 12,000 FEET WITH NO
SIGNIFICANT WEATHER AND/OR OBSTRUCTIONS TO VISIBILITY.

NOT ALL STATIONS ARE QUALITY CONTROLLED BY THE NATIONAL
WEATHER SERVICE. USE DATA WITH CAUTION...ESPECIALLY
DEWPOINT OBSERVATIONS.

SCZ027-030-031-034>040-042>050-261500-
...SOUTHEAST SOUTH CAROLINA...

CITY           SKY/WX    TMP DP  RH WIND       PRES   REMARKS
N CHARLESTON   MOSUNNY   48  43  82 CALM      30.34R
WATERFRONT PRK   N/A     50 N/A N/A N6          N/A
MOUNT PLEASANT FAIR      46  45  93 CALM      30.35R
PINOPOLIS      NOT AVBL
MONCKS CORNER  FAIR      50  45  81 CALM      30.35R
SUMMERVILLE    FAIR      46  45  93 CALM      30.36R
BEAUFORT MCAS  SUNNY     46  42  86 N7        30.33R
BEAUFORT ARPT  FAIR      46  45  93 N5        30.32S
HILTON HEAD IS SUNNY     45  45 100 CALM      30.32R
WALTERBORO     SUNNY     46 N/A N/A CALM      30.35S
ALLENDALE      FAIR      45  41  87 NE5       30.33S

...SOUTHERN MIDLANDS AND PEE DEE...

CITY           SKY/WX    TMP DP  RH WIND       PRES   REMARKS
GEORGETOWN     NOT AVBL
KINGSTREE      NOT AVBL
ORANGEBURG     MOSUNNY   43  38  82 CALM      30.35R
BARNWELL       FAIR      46  41  81 NE3       30.35S
AIKEN          FAIR      43  43 100 NE5       30.38R
MANNING        FAIR      45 N/A N/A CALM      30.36R
COLUMBIA       MOSUNNY   35  33  92 S3        30.35R
SUMTER         MOSUNNY   40  37  89 NE1       30.34R
FLORENCE       SUNNY     42  37  82 N3        30.35R
MYRTLE BEACH   SUNNY     45  41  87 N5        30.36R
N MYRTLE BEACH SUNNY     46  41  82 N3        30.35R

$$

GAZ063-065-086>088-099>101-113>116-118-119-134>141-150-261500-
...SOUTHEAST GEORGIA...

CITY           SKY/WX    TMP DP  RH WIND       PRES   REMARKS
SAVANNAH ARPT  MOSUNNY   46  40  79 N5        30.33R
HUNTER AAF     FAIR      47  42  84 N2        30.30R
FORT STEWART   SUNNY     45  40  82 N2        30.31R
STATESBORO     SUNNY     43  43 100 CALM      30.34R
SYLVANIA       SUNNY     44  43  98 CALM      30.34R
CLAXTON        FAIR      43  43 100 CALM      30.34R

...CSRA...CENTRAL AND FAR SOUTHEAST GEORGIA...

CITY           SKY/WX    TMP DP  RH WIND       PRES   REMARKS
THOMSON        MOSUNNY   37  37 100 CALM      30.40R
AUGUSTA-BUSH   MOSUNNY   35  34  96 CALM      30.36R
AUGUSTA-DANIEL MOSUNNY   38  36  92 CALM      30.35R
SWAINSBORO     FAIR      46  46 100 CALM      30.36R
VIDALIA        MOSUNNY   45  41  87 CALM      30.34R
EASTMAN        FAIR      40  40 100 CALM      30.37R
HAZLEHURST     FAIR      46  45  97 CALM      30.33R
ALMA           SUNNY     46  41  82 CALM      30.32R
WAYCROSS       SUNNY     50  47  87 E3        30.31F
JESUP          FAIR      50  45  81 NE3       30.33R
BAXLEY         FAIR      48  43  81 E3        30.32R
BRUNSWICK      SUNNY     50  48  93 CALM      30.32R
SAINT SIMONS   SUNNY     50  46  86 N5        30.30R

$$

SCZ027-028-034-036>038-045-046-048>050-GAZ119-141-261500-
...LAKE AND SUPPLEMENTAL COASTAL OBSERVATIONS...

STATION/POSITION TIME  TEMP    WIND        PRES    WAVE   SWELL
                       AIR SEA DIR/SP/G            HT/PER HT/PER/DIR
                 (UTC) (F)     (DEG/KT/KT) (MB)    (FT/S) (FT/S/D)
UPR LAKE MARION  NOT AVBL
WINYAH BAY       1400   51      10/  5     1026.0S
LAKE MURRAY      1400   41     310/  1/  3 1027.1S
ACE BASIN NERRS  1400   44        CALM     1027.0R
FORT PULASKI     1400   50 56   10/  5/  6 1026.9R
SAPELO ISLAND    1400   48      20/  4     1026.0S

$$

ANZ835-935-AMZ111-154-330-350-352-354-370-450-454-472-261500-
...C-MAN AND BUOY OBSERVATIONS...

STATION/POSITION TIME  TEMP    WIND        PRES    WAVE   SWELL
                       AIR SEA DIR/SP/G            HT/PER HT/PER/DIR
                 (UTC) (F)     (DEG/KT/KT) (MB)    (FT/S) (FT/S/D)
BUOY 41004       1400   63 71   50/  4/  8 1025.6R   2/ 7   2/ 7
BUOY 41008       1400   56 58   20/ 10/ 12 1025.5R   2/ 7   2/120/ 7
FOLLY BEACH CMAN 1400   51     360/  5/  7 1027.7R
CAPERS NEARSHORE 1300   50      20/  8/ 10   N/A
FRIPP NEARSHORE  NOT AVBL


STATION/POSITION TIME  TEMP    WIND        PRES    WAVE   SWELL
                       AIR SEA DIR/SP/G            HT/PER HT/PER/DIR
                 (UTC) (F)     (DEG/KT/KT) (MB)    (FT/S) (FT/S/D)
5E ST. MARYS GA  1400      61                N/A     2/ 9
FRYING PAN BUOY  1400   59 70   30/ 12/ 14 1026.9R   2/ 7   2/150/ 7
BUOY 41025       1400   57                 1026.9R   3/ 7
CAPE LOOKOUT NC  1400   51      10/  5/  7 1027.1R
BUOY 41002       1347   68 71   70/ 10/ 14 1025.2R   4/ 6   3/250/ 6
BUOY 41010       1400   71 76   40/  8/ 10 1023.9R   3/ 6   3/350/ 6
ST AUGUSTINE FL  1400   55     340/  6/  7 1025.4R


$$



USA.gov is the U.S. government's official web portal to all federal, state and local government web resources and services.